Location: Oberwangen
(47.4286°N, 8.9679°E)
Time: 07:02:55
(UTC+00:00)

Cosmos 1844 - Pass Details

Date: 20 June 2021
Orbit: 823 x 867 km, 70.9° (Epoch: 28 July)

Event Time Altitude Azimuth Distance (km) Brightness Sun altitude
Rises 20:22:55 0° 331° (NNW) 3,372 8.8 -8.1°
Reaches altitude 10° 20:25:21 10° 331° (NNW) 2,437 7.7 -8.3°
Maximum altitude 20:30:56 82° 245° (WSW) 843 3.7 -8.9°
Enters shadow 20:36:25 11° 158° (SSE) 2,397 5.5 -9.5°
